COSMOS 1275 DEB, 13803

Orbit data source: Space-Track

COSMOS 1275 DEB, 13803 is space debris in LEO originally from a launch on Thu, 04 Jun 1981 UTC launched from the Plesetsk Missile And Space Complex (PKMTR). Debris objects in space refer to the collection of defunct objects orbiting the Earth. Examples of debris include non-operational satellites, rocket bodies, and fragments generated from explosions, collisions, or faulty payload assembly.

Loading next visibility...
Identifier
13803, 1981-053GX
Orbit
LEO
Country
Flag of CISCIS
Related business
Manufacturer
Unknown
Mission
Spacecraft
Bus & Motor
Unknown
Mass
Unknown
Launch date (UTC)
1981-06-04 (44 years ago)
Launch vehicle
Unknown
Launch site
Plesetsk Missile And Space Complex (PKMTR)
Object type
Payload
Rocket body
Debris
Shape & HBR
Unknown shape, 0.1 m
Radar Cross Section
Small (<0.1 m²)

Expand to show TLE details & history
Last TLE update: 15 hours ago

TLE from 15 hours ago
0 COSMOS 1275 DEB
1 13803U 81053GX  25289.15451310  .00003086  00000-0  17005-2 0  9990
2 13803  82.8138 313.7535 0043184 256.9590 189.6828 14.10832337178448
Epoch: 2025-10-16T03:42Z
TLE epoch observation values (Epoch: 2025-10-16T03:42:29.931Z)
Latitude
82.07573°
Longitude
-62.4894°
Altitude
900.863 km
Speed
7.393 km/s
True Right ascension
01h 12m 12s
True Declination
82° 01' 46"
Sunlit
Object was in daylight at epoch
Visualization orbit readout
Latitude
Unknown
Longitude
Unknown
Altitude
Unknown
Speed
Unknown
Apparent Right ascension
Unknown
Apparent Declination
Unknown
Sunlit
N/A
Visualization observer readout
Local Sidereal Time
13:11:04
Azimuth
Unknown
Elevation
Unknown
Doppler factor
Unknown
Orbital elements
Apogee altitude
884.859 km
Perigee altitude
822.4 km
Semi-major axis
7,231.766 km
Eccentricity
0.00432
Inclination
82.8138°
RAAN
313.7535°
Arg. of periapsis
256.959°
True anomaly
189.60001°
Mean anomaly
189.6828°
Eccentric anomaly
189.64136°
Mean motion
3.5292 °/min
Orbital period
102.01 mins
BSTAR
0.0017005
Loading maneuver chart data...
Computing Atmospheric mass density...

Documentation

Showing up to 5 results
|